Location: Canet
(43.3261°N, 5.3723°E)
Time: 18:15:33
(UTC+00:00)

Cosmos 1898 Rocket - Pass Details

Date: 24 January 2021
Orbit: 754 x 783 km, 74.0° (Epoch: 08 March)

Event Time Altitude Azimuth Distance (km) Brightness Sun altitude
Rises 17:30:18 0° 177° (S) 3,237 6.9 -9.3°
Reaches altitude 10° 17:32:48 10° 169° (S) 2,310 6.1 -9.8°
Maximum altitude 17:37:38 39° 102° (ESE) 1,149 4.0 -10.6°
Drops below altitude 10° 17:42:27 10° 35° (NE) 2,308 5.5 -11.5°
Enters shadow 17:43:13 - 33° (NNE) 2,583 5.8 -11.6°
